Location: MAS Eagle Lake Observatory
(44.8103°N, 93.9397°W)
Time: 07:53:06
(UTC-06:00)

N. Korean satellite - Visible Passes

Search period start: 20 February 2018 00:00
Search period end: 02 March 2018 00:00
Orbit: 459 x 514 km, 97.2° (Epoch: 20 February)

Date Brightness Start Highest point End Pass type
(mag) Time Alt. Az. Time Alt. Az. Time Alt. Az.
20 Feb 10.1 06:02:38 10° NE 06:05:02 16° E 06:07:26 10° SE visible
22 Feb 9.7 19:00:02 10° SW 19:02:30 18° W 19:05:01 10° NW visible
23 Feb 9.0 06:24:10 10° NNE 06:27:27 29° E 06:30:44 10° SSE visible
23 Feb 8.4 18:35:26 10° SSW 18:38:37 35° W 18:41:52 10° NNW visible
24 Feb 10.1 06:01:10 10° NE 06:03:33 16° E 06:05:56 10° SE visible
25 Feb 10.6 19:24:54 10° W 19:24:56 10° W 19:24:58 10° W visible
26 Feb 9.7 18:58:24 10° SW 19:00:58 19° W 19:03:34 10° NW visible
27 Feb 9.1 06:22:39 10° NE 06:25:55 29° E 06:29:13 10° SSE visible
27 Feb 8.4 18:33:49 10° SSW 18:37:03 37° W 18:40:22 10° NNW visible
28 Feb 10.2 05:59:39 10° NE 06:02:01 16° E 06:04:22 10° SE visible
01 Mar 10.5 19:22:34 10° WSW 19:23:21 11° W 19:24:08 10° WNW visible
